KC5AYO Weather Reports


Display with metric or nautical units.
time (UTC)temp
F
wind
direction
speed
MPH
gust
MPH
rain 1hr
in
rain 24hr
in
rain mn
in
humidity
%
barometer
mb
20260831231541 89 268 0.0 0.0 0.00 0.00 0.00 66 1014.9
20260831231043 89 205 0.0 0.0 0.00 0.00 0.00 64 1014.9
20260831230540 89 196 0.0 0.0 0.00 0.00 0.00 65 1014.9
20260831230046 89 210 0.0 0.0 0.00 0.00 0.00 63 1014.9
20260831225541 89 190 0.0 2.0 0.00 0.00 0.00 64 1014.9
20260831225040 89 135 0.0 2.0 0.00 0.00 0.00 61 1014.9
20260831224540 89 288 0.0 2.0 0.00 0.00 0.00 61 1014.9
20260831224040 90 161 0.0 2.0 0.00 0.00 0.00 64 1014.9
20260831223542 90 155 0.0 2.0 0.00 0.00 0.00 64 1014.9
20260831223039 90 177 0.0 2.0 0.00 0.00 0.00 60 1014.9
20260831222539 90 178 0.0 2.0 0.00 0.00 0.00 60 1014.8
20260831222039 90 285 0.0 2.0 0.00 0.00 0.00 63 1014.9
20260831221543 90 235 0.0 2.0 0.00 0.00 0.00 63 1014.9
20260831221038 90 298 0.0 2.0 0.00 0.00 0.00 62 1014.9
20260831220538 91 154 0.0 2.0 0.00 0.00 0.00 58 1015.0
20260831220038 91 217 0.0 2.0 0.00 0.00 0.00 59 1015.0
20260831215538 90 171 0.0 2.0 0.00 0.00 0.00 60 1015.0
20260831215038 91 238 0.0 2.0 0.00 0.00 0.00 60 1015.0
20260831214542 90 293 0.0 2.0 0.00 0.00 0.00 60 1015.0
20260831214038 90 175 0.0 3.0 0.00 0.00 0.00 60 1015.1
20260831213536 90 212 0.0 3.0 0.00 0.00 0.00 60 1015.1
20260831213040 90 282 0.0 3.0 0.00 0.00 0.00 61 1015.1
20260831212538 90 202 0.0 3.0 0.00 0.00 0.00 59 1015.1
20260831212035 90 150 0.0 3.0 0.00 0.00 0.00 60 1015.1
20260831211536 90 305 0.0 2.0 0.00 0.00 0.00 63 1015.2
20260831211034 90 269 0.0 2.0 0.00 0.00 0.00 62 1015.1
20260831210533 90 299 0.0 1.0 0.00 0.00 0.00 62 1015.2
20260831210032 90 209 0.0 1.0 0.00 0.00 0.00 65 1015.3
20260831205532 90 355 0.0 2.0 0.00 0.00 0.00 64 1015.4
20260831205032 90 165 0.0 2.0 0.00 0.00 0.00 64 1015.8
20260831204532 90 185 0.0 2.0 0.00 0.00 0.00 61 1015.5
20260831204034 90 248 0.0 2.0 0.00 0.00 0.00 63 1015.6
20260831203531 90 187 0.0 2.0 0.00 0.00 0.00 59 1015.6
20260831203030 90 195 0.0 2.0 0.00 0.00 0.00 61 1015.6
20260831202531 90 223 0.0 2.0 0.00 0.00 0.00 61 1015.6
20260831202033 90 252 0.0 2.0 0.00 0.00 0.00 59 1015.7
20260831201533 91 286 0.0 2.0 0.00 0.00 0.00 59 1015.8
20260831201032 91 150 0.0 2.0 0.00 0.00 0.00 56 1015.8
20260831200530 90 125 0.0 2.0 0.00 0.00 0.00 57 1015.9
20260831200031 91 283 0.0 3.0 0.00 0.00 0.00 57 1016.1
20260831195532 92 129 1.0 4.0 0.00 0.00 0.00 57 1016.0
20260831195030 92 122 1.0 3.0 0.00 0.00 0.00 58 1016.1
20260831194529 92 215 0.0 5.0 0.00 0.00 0.00 55 1016.1
20260831194029 92 319 0.0 5.0 0.00 0.00 0.00 57 1016.1
20260831193531 92 162 0.0 5.0 0.00 0.00 0.00 55 1016.3
20260831193034 91 300 1.0 4.0 0.00 0.00 0.00 55 1016.3
20260831192527 92 294 0.0 3.0 0.00 0.00 0.00 59 1016.3
20260831192027 92 200 0.0 3.0 0.00 0.00 0.00 58 1016.3
20260831191530 92 309 0.0 4.0 0.00 0.00 0.00 58 1016.3
20260831191036 92 283 1.0 4.0 0.00 0.00 0.00 56 1016.4
20260831190527 91 336 0.0 2.0 0.00 0.00 0.00 58 1016.5
20260831190028 92 264 0.0 5.0 0.00 0.00 0.00 58 1016.5
20260831185527 92 186 1.0 5.0 0.00 0.00 0.00 55 1016.7
20260831185028 92 339 0.0 2.0 0.00 0.00 0.00 59 1016.7
20260831184526 92 134 0.0 2.0 0.00 0.00 0.00 56 1016.8
20260831184026 92 304 0.0 4.0 0.00 0.00 0.00 58 1016.8
20260831183526 92 107 0.0 4.0 0.00 0.00 0.00 56 1016.8
20260831183025 92 223 0.0 5.0 0.00 0.00 0.00 58 1016.8
20260831182524 92 128 0.0 5.0 0.00 0.00 0.00 57 1016.9
20260831182024 91 284 0.0 3.0 0.00 0.00 0.00 57 1017.0
20260831181524 91 253 0.0 4.0 0.00 0.00 0.00 59 1017.0
20260831181022 91 189 0.0 5.0 0.00 0.00 0.00 61 1017.0
20260831180523 91 130 0.0 5.0 0.00 0.00 0.00 58 1016.9
20260831180022 91 190 1.0 5.0 0.00 0.00 0.00 59 1017.0
20260831175521 91 347 0.0 4.0 0.00 0.00 0.00 59 1017.1
20260831175020 91 168 1.0 4.0 0.00 0.00 0.00 61 1017.0
20260831174521 91 113 0.0 3.0 0.00 0.00 0.00 58 1017.1
20260831174019 91 130 0.0 4.0 0.00 0.00 0.00 60 1017.0
20260831173521 91 119 0.0 4.0 0.00 0.00 0.00 60 1017.2
20260831173019 91 319 0.0 4.0 0.00 0.00 0.00 64 1017.1
20260831172518 91 125 1.0 5.0 0.00 0.00 0.00 60 1017.1
20260831172015 91 246 0.0 2.0 0.00 0.00 0.00 63 1017.2
20260831171518 90 297 0.0 2.0 0.00 0.00 0.00 64 1017.2
20260831171013 90 313 0.0 4.0 0.00 0.00 0.00 64 1017.2
20260831170512 90 126 1.0 4.0 0.00 0.00 0.00 62 1017.4
20260831170027 89 195 0.0 4.0 0.00 0.00 0.00 62 1017.4
20260831165513 89 295 0.0 4.0 0.00 0.00 0.00 66 1017.4
20260831165008 89 9 0.0 4.0 0.00 0.00 0.00 68 1017.4
20260831164511 89 287 0.0 4.0 0.00 0.00 0.00 68 1017.4
20260831164010 89 157 0.0 3.0 0.00 0.00 0.00 68 1017.5
20260831163504 88 278 0.0 2.0 0.00 0.00 0.00 68 1017.5
20260831163002 88 360 0.0 2.0 0.00 0.00 0.00 68 1017.6
20260831162505 87 207 0.0 2.0 0.00 0.00 0.00 70 1017.6
20260831162102 87 336 0.0 3.0 0.00 0.00 0.00 68 1017.7
20260831161601 87 127 0.0 3.0 0.00 0.00 0.00 69 1017.8
20260831161058 86 144 0.0 3.0 0.00 0.00 0.00 69 1017.6
20260831160558 86 104 1.0 3.0 0.00 0.00 0.00 68 1017.7
20260831160058 86 278 0.0 3.0 0.00 0.00 0.00 70 1017.6
20260831155557 85 145 0.0 5.0 0.00 0.00 0.00 74 1017.6
20260831155056 85 232 0.0 5.0 0.00 0.00 0.00 70 1017.6
20260831154557 85 88 0.0 4.0 0.00 0.00 0.00 73 1017.6
20260831154053 85 344 0.0 4.0 0.00 0.00 0.00 72 1017.7
20260831153553 84 225 0.0 3.0 0.00 0.00 0.00 73 1017.6
20260831153055 84 306 0.0 3.0 0.00 0.00 0.00 73 1017.7
20260831152550 84 175 0.0 3.0 0.00 0.00 0.00 74 1017.6
20260831152049 84 132 0.0 2.0 0.00 0.00 0.00 74 1017.7
20260831151555 83 156 0.0 3.0 0.00 0.00 0.00 74 1017.7
20260831151049 83 344 0.0 3.0 0.00 0.00 0.00 75 1017.7
20260831150546 83 160 0.0 5.0 0.00 0.00 0.00 75 1017.6
20260831150045 82 194 0.0 5.0 0.00 0.00 0.00 76 1017.7
20260831145543 82 229 0.0 2.0 0.00 0.00 0.00 78 1017.6
20260831145042 82 156 0.0 2.0 0.00 0.00 0.00 79 1017.5
20260831144544 81 304 0.0 3.0 0.00 0.00 0.00 79 1017.5
20260831144040 81 169 0.0 3.0 0.00 0.00 0.00 79 1017.4
20260831143539 81 239 0.0 2.0 0.00 0.00 0.00 79 1017.4
20260831143038 80 120 0.0 2.0 0.00 0.00 0.00 81 1017.4
20260831142536 80 17 0.0 2.0 0.00 0.00 0.00 83 1017.4
20260831142034 79 125 0.0 2.0 0.00 0.00 0.00 81 1017.5
20260831141536 79 171 0.0 1.0 0.00 0.00 0.00 82 1017.4
20260831141038 79 260 0.0 1.0 0.00 0.00 0.00 82 1017.4
20260831140534 78 291 0.0 2.0 0.00 0.00 0.00 83 1017.4
20260831140035 78 129 0.0 2.0 0.00 0.00 0.00 83 1017.5
20260831135530 77 198 0.0 2.0 0.00 0.00 0.00 85 1017.4
20260831135029 77 295 0.0 2.0 0.00 0.00 0.00 86 1017.5
20260831134527 76 326 0.0 0.0 0.00 0.00 0.00 86 1017.5
20260831134026 76 156 0.0 0.0 0.00 0.00 0.00 85 1017.4
20260831133525 75 112 0.0 0.0 0.00 0.00 0.00 86 1017.4
20260831133028 75 212 0.0 0.0 0.00 0.00 0.00 87 1017.5
20260831132522 74 234 0.0 2.0 0.00 0.00 0.00 87 1017.5
20260831132021 74 248 0.0 2.0 0.00 0.00 0.00 87 1017.4
20260831131520 74 193 0.0 2.0 0.00 0.00 0.00 88 1017.4
20260831131022 73 259 0.0 1.0 0.00 0.00 0.00 89 1017.4
20260831130518 73 296 0.0 2.0 0.00 0.00 0.00 89 1017.4
20260831130019 73 200 0.0 2.0 0.00 0.00 0.00 90 1017.3
20260831125521 72 146 0.0 2.0 0.00 0.00 0.00 90 1017.4
20260831125018 72 238 0.0 1.0 0.00 0.00 0.00 90 1017.3
20260831124523 72 212 0.0 0.0 0.00 0.00 0.00 92 1017.2
20260831124016 72 309 0.0 0.0 0.00 0.00 0.00 92 1017.3
20260831123516 72 309 0.0 0.0 0.00 0.00 0.00 92 1017.2
20260831123018 72 309 0.0 0.0 0.00 0.00 0.00 92 1017.2
20260831122516 71 309 0.0 0.0 0.00 0.00 0.00 92 1017.2
20260831122012 71 309 0.0 0.0 0.00 0.00 0.00 91 1017.2
20260831121512 71 311 0.0 0.0 0.00 0.00 0.00 92 1017.1
20260831121012 71 192 0.0 0.0 0.00 0.00 0.00 92 1017.1
20260831120512 71 190 0.0 0.0 0.00 0.00 0.00 92 1016.9
20260831120010 71 202 0.0 0.0 0.00 0.00 0.00 92 1016.9
20260831115510 71 186 0.0 0.0 0.00 0.00 0.00 92 1017.0
20260831115015 71 180 0.0 0.0 0.00 0.00 0.00 93 1017.0
20260831114510 70 284 0.0 0.0 0.00 0.00 0.00 93 1017.0
20260831114011 70 284 0.0 0.0 0.00 0.00 0.00 93 1017.0
20260831113512 70 284 0.0 0.0 0.00 0.00 0.00 93 1017.0
20260831113008 70 284 0.0 0.0 0.00 0.00 0.00 94 1017.0
20260831112508 70 284 0.0 0.0 0.00 0.00 0.00 93 1017.0
20260831112007 70 284 0.0 0.0 0.00 0.00 0.00 93 1017.0
20260831111506 70 284 0.0 0.0 0.00 0.00 0.00 93 1016.9
20260831111006 70 284 0.0 0.0 0.00 0.00 0.00 93 1016.9
20260831110505 70 284 0.0 0.0 0.00 0.00 0.00 93 1016.9
20260831110009 71 284 0.0 0.0 0.00 0.00 0.00 93 1016.9
20260831105505 71 284 0.0 0.0 0.00 0.00 0.00 93 1016.7
20260831105005 71 284 0.0 0.0 0.00 0.00 0.00 93 1016.6
20260831104507 71 284 0.0 0.0 0.00 0.00 0.00 93 1016.5
20260831104005 70 205 0.0 0.0 0.00 0.00 0.00 92 1016.5
20260831103504 70 205 0.0 0.0 0.00 0.00 0.00 92 1016.4
20260831103003 70 205 0.0 0.0 0.00 0.00 0.00 92 1016.3
20260831102503 71 205 0.0 0.0 0.00 0.00 0.00 92 1016.4
20260831102006 71 205 0.0 0.0 0.00 0.00 0.00 91 1016.4
20260831101503 71 205 0.0 0.0 0.00 0.00 0.00 91 1016.3
20260831101002 71 205 0.0 0.0 0.00 0.00 0.00 91 1016.3
20260831100502 71 205 0.0 0.0 0.00 0.00 0.00 91 1016.3
20260831100001 71 205 0.0 0.0 0.00 0.00 0.00 91 1016.3
20260831095501 71 205 0.0 0.0 0.00 0.00 0.00 91 1016.3
20260831095101 71 205 0.0 0.0 0.00 0.00 0.00 91 1016.1
20260831094600 71 205 0.0 0.0 0.00 0.00 0.00 91 1016.2
20260831094100 71 205 0.0 0.0 0.00 0.00 0.00 91 1016.3
20260831093600 71 205 0.0 0.0 0.00 0.00 0.00 91 1016.3
20260831093106 72 205 0.0 0.0 0.00 0.00 0.00 91 1016.4
20260831092557 72 205 0.0 0.0 0.00 0.00 0.00 91 1016.2
20260831092057 72 205 0.0 0.0 0.00 0.00 0.00 90 1016.3
20260831091557 72 205 0.0 0.0 0.00 0.00 0.00 90 1016.4
20260831091057 72 205 0.0 0.0 0.00 0.00 0.00 89 1016.3
20260831090557 73 205 0.0 0.0 0.00 0.00 0.00 90 1016.4
20260831090057 73 205 0.0 0.0 0.00 0.00 0.00 90 1016.4
20260831085557 73 205 0.0 0.0 0.00 0.00 0.00 90 1016.1
20260831085057 72 205 0.0 0.0 0.00 0.00 0.00 89 1016.0
20260831084607 72 205 0.0 0.0 0.00 0.00 0.00 89 1015.8
20260831084056 72 205 0.0 0.0 0.00 0.00 0.00 89 1015.8
20260831083556 72 205 0.0 0.0 0.00 0.00 0.00 89 1015.7
20260831083056 72 240 0.0 0.0 0.00 0.00 0.00 89 1015.6
20260831082555 72 240 0.0 0.0 0.00 0.00 0.00 89 1015.5
20260831082055 72 240 0.0 0.0 0.00 0.00 0.00 89 1015.5
20260831081555 72 240 0.0 0.0 0.00 0.00 0.00 89 1015.5
20260831081053 72 240 0.0 0.0 0.00 0.00 0.00 89 1015.5
20260831080555 72 239 0.0 0.0 0.00 0.00 0.00 89 1015.4
20260831080104 72 301 0.0 0.0 0.00 0.00 0.00 89 1015.4
20260831075553 72 302 0.0 0.0 0.00 0.00 0.00 88 1015.3
20260831075055 72 301 0.0 0.0 0.00 0.00 0.00 89 1015.4
20260831074553 72 301 0.0 0.0 0.00 0.00 0.00 89 1015.4
20260831074052 73 301 0.0 0.0 0.00 0.00 0.00 89 1015.3
20260831073551 73 302 0.0 0.0 0.00 0.00 0.00 89 1015.4
20260831073052 73 301 0.0 1.0 0.00 0.00 0.00 89 1015.7
20260831072549 73 301 0.0 1.0 0.00 0.00 0.00 90 1015.7
20260831072049 73 301 0.0 0.0 0.00 0.00 0.00 90 1015.7
20260831071549 73 301 0.0 0.0 0.00 0.00 0.00 90 1015.6
20260831071049 73 301 0.0 2.0 0.00 0.00 0.00 89 1015.8
20260831070548 73 301 0.0 2.0 0.00 0.00 0.00 90 1015.8
20260831070049 73 284 0.0 0.0 0.00 0.00 0.00 89 1015.9
20260831065550 73 132 0.0 0.0 0.00 0.00 0.00 88 1015.8
20260831065050 73 132 0.0 0.0 0.00 0.00 0.00 89 1016.0
20260831064547 73 132 0.0 0.0 0.00 0.00 0.00 88 1016.1
20260831064046 73 132 0.0 0.0 0.00 0.00 0.00 88 1016.1
20260831063546 73 132 0.0 0.0 0.00 0.00 0.00 88 1016.3
20260831063045 73 132 0.0 0.0 0.00 0.00 0.00 88 1016.3
20260831062548 73 132 0.0 0.0 0.00 0.00 0.00 88 1016.3
20260831062045 73 132 0.0 0.0 0.00 0.00 0.00 89 1016.3
20260831061545 73 132 0.0 0.0 0.00 0.00 0.00 89 1016.3
20260831061045 73 132 0.0 0.0 0.00 0.00 0.00 89 1016.4
20260831060545 73 132 0.0 0.0 0.00 0.00 0.00 89 1016.4
20260831060044 73 132 0.0 0.0 0.00 0.00 0.00 89 1016.5
20260831055547 73 132 0.0 1.0 0.00 0.00 0.00 89 1016.4
20260831055043 73 132 0.0 1.0 0.00 0.00 0.00 90 1016.4
20260831054544 73 132 0.0 0.0 0.00 0.00 0.00 90 1016.4
20260831054043 73 132 0.0 0.0 0.00 0.00 0.00 90 1016.4
20260831053543 73 132 0.0 0.0 0.00 0.00 0.00 91 1016.5
20260831053043 73 132 0.0 0.0 0.00 0.00 0.00 91 1016.6
20260831052547 73 132 0.0 0.0 0.00 0.00 0.00 92 1016.6
20260831052042 73 132 0.0 0.0 0.00 0.00 0.00 92 1016.6
20260831051546 73 132 0.0 0.0 0.00 0.00 0.00 92 1016.6
20260831051041 73 132 0.0 0.0 0.00 0.00 0.00 92 1016.5
20260831050541 73 132 0.0 0.0 0.00 0.00 0.00 93 1016.4
20260831050041 73 132 0.0 0.0 0.00 0.00 0.00 92 1016.5
20260831045540 73 132 0.0 0.0 0.00 0.00 0.00 92 1016.4
20260831045040 73 132 0.0 0.0 0.00 0.00 0.00 92 1016.3
20260831044550 73 132 0.0 0.0 0.00 0.00 0.00 92 1016.4
20260831044038 73 132 0.0 0.0 0.00 0.00 0.00 92 1016.3
20260831043539 73 132 0.0 0.0 0.00 0.00 0.00 91 1016.3
20260831043037 73 132 0.0 0.0 0.00 0.00 0.00 92 1016.1
20260831042538 73 132 0.0 0.0 0.00 0.00 0.00 92 1016.2
20260831042036 73 132 0.0 0.0 0.00 0.00 0.00 92 1016.3
20260831041547 74 132 0.0 0.0 0.00 0.00 0.00 92 1016.2
20260831041040 74 132 0.0 0.0 0.00 0.00 0.00 93 1016.3
20260831040534 73 132 0.0 0.0 0.00 0.00 0.00 92 1016.2
20260831040033 73 132 0.0 0.0 0.00 0.00 0.00 92 1016.2
20260831035532 73 132 0.0 0.0 0.00 0.00 0.00 92 1016.2
20260831035033 73 132 0.0 0.0 0.00 0.00 0.00 91 1016.3
20260831034532 73 132 0.0 0.0 0.00 0.00 0.00 91 1016.4
20260831034032 73 132 0.0 0.0 0.00 0.00 0.00 91 1016.3
20260831033532 74 132 0.0 0.0 0.00 0.00 0.00 90 1016.5
20260831033031 74 132 0.0 0.0 0.00 0.00 0.00 91 1016.4
20260831032531 74 132 0.0 0.0 0.00 0.00 0.00 91 1016.4
20260831032031 74 132 0.0 0.0 0.00 0.00 0.00 91 1016.4
20260831031531 74 132 0.0 0.0 0.00 0.00 0.00 91 1016.3
20260831031031 74 132 0.0 0.0 0.00 0.00 0.00 90 1016.3
20260831030531 75 132 0.0 0.0 0.00 0.00 0.00 90 1016.4
20260831030031 75 132 0.0 0.0 0.00 0.00 0.00 90 1016.4
20260831025531 75 132 0.0 0.0 0.00 0.00 0.00 90 1016.4
20260831025030 75 132 0.0 0.0 0.00 0.00 0.00 89 1016.3
20260831024531 75 132 0.0 0.0 0.00 0.00 0.00 89 1016.3
20260831024033 75 132 0.0 0.0 0.00 0.00 0.00 88 1016.3
20260831023532 76 132 0.0 0.0 0.00 0.00 0.00 88 1016.3
20260831023029 76 132 0.0 0.0 0.00 0.00 0.00 88 1016.3
20260831022529 76 132 0.0 0.0 0.00 0.00 0.00 88 1016.3
20260831022029 76 132 0.0 0.0 0.00 0.00 0.00 88 1016.4
20260831021536 76 132 0.0 0.0 0.00 0.00 0.00 88 1016.3
20260831021029 76 132 0.0 0.0 0.00 0.00 0.00 87 1016.3
20260831020529 76 132 0.0 0.0 0.00 0.00 0.00 87 1016.4
20260831020028 76 132 0.0 0.0 0.00 0.00 0.00 87 1016.3
20260831015529 76 132 0.0 0.0 0.00 0.00 0.00 87 1016.3
20260831015028 76 132 0.0 0.0 0.00 0.00 0.00 86 1016.3
20260831014528 76 132 0.0 0.0 0.00 0.00 0.00 86 1016.3
20260831014028 76 132 0.0 0.0 0.00 0.00 0.00 86 1016.3
20260831013531 76 132 0.0 0.0 0.00 0.00 0.00 85 1016.2
20260831013028 76 132 0.0 0.0 0.00 0.00 0.00 85 1016.0
20260831012527 76 132 0.0 0.0 0.00 0.00 0.00 85 1016.1
20260831012026 77 132 0.0 0.0 0.00 0.00 0.00 84 1016.1
20260831011529 77 132 0.0 0.0 0.00 0.00 0.00 84 1016.1
20260831011027 77 132 0.0 0.0 0.00 0.00 0.00 82 1016.1
20260831010526 77 132 0.0 0.0 0.00 0.00 0.00 82 1016.1
20260831010026 77 132 0.0 0.0 0.00 0.00 0.00 80 1016.1
20260831005526 77 132 0.0 0.0 0.00 0.00 0.00 80 1016.0
20260831005028 78 132 0.0 0.0 0.00 0.00 0.00 78 1015.9
20260831004526 78 132 0.0 0.0 0.00 0.00 0.00 77 1015.8
20260831004030 79 132 0.0 0.0 0.00 0.00 0.00 77 1015.8
20260831003526 79 132 0.0 0.0 0.00 0.00 0.00 76 1015.6
20260831003025 79 132 0.0 0.0 0.00 0.00 0.00 77 1015.6
20260831002525 79 132 0.0 0.0 0.00 0.00 0.00 77 1015.7
20260831002025 80 132 0.0 0.0 0.00 0.00 0.00 75 1015.7
20260831001525 80 132 0.0 0.0 0.00 0.00 0.00 75 1015.7
20260831001028 80 132 0.0 0.0 0.00 0.00 0.00 75 1015.7
20260831000525 81 132 0.0 0.0 0.00 0.00 0.00 74 1015.7
20260831000036 81 132 0.0 0.0 0.00 0.00 0.00 74 1015.5
20260830235525 81 132 0.0 0.0 0.00 0.00 0.00 73 1015.6
20260830235026 81 132 0.0 0.0 0.00 0.00 0.00 72 1015.5
20260830234524 82 132 0.0 0.0 0.00 0.00 0.00 73 1015.5
20260830234024 82 132 0.0 0.0 0.00 0.00 0.00 71 1015.4
20260830233528 82 132 0.0 0.0 0.00 0.00 0.00 71 1015.3
20260830233031 82 132 0.0 0.0 0.00 0.00 0.00 70 1015.4
20260830232523 83 132 0.0 0.0 0.00 0.00 0.00 69 1015.3
20260830232025 83 132 0.0 0.0 0.00 0.00 0.00 68 1015.4